| time (UTC) | temp F | wind direction | speed MPH | gust MPH | rain 1hr in | rain 24hr in | rain mn in | humidity % | barometer mb |
| 20260508191526 | 50 | 69 | 8.0 | 16.0 | 0.00 | 0.00 | 0.00 | 82 | 1001.5 |
| 20260508190031 | 52 | 5 | 5.0 | 15.0 | 0.00 | 0.00 | 0.00 | 80 | 1001.6 |
| 20260508184538 | 52 | 48 | 10.0 | 16.0 | 0.00 | 0.00 | 0.00 | 78 | 1001.4 |
| 20260508183023 | 53 | 68 | 7.0 | 15.0 | 0.00 | 0.00 | 0.00 | 78 | 1001.4 |
| 20260508181531 | 54 | 39 | 8.0 | 14.0 | 0.00 | 0.00 | 0.00 | 73 | 1001.6 |
| 20260508180020 | 54 | 49 | 9.0 | 14.0 | 0.00 | 0.00 | 0.00 | 78 | 1001.7 |
| 20260508174529 | 53 | 55 | 10.0 | 13.0 | 0.00 | 0.00 | 0.00 | 79 | 1001.6 |
| 20260508173016 | 52 | 10 | 9.0 | 12.0 | 0.00 | 0.00 | 0.00 | 78 | 1001.6 |
| 20260508171514 | 52 | 10 | 7.0 | 11.0 | 0.00 | 0.00 | 0.00 | 78 | 1002.1 |
| 20260508170011 | 50 | 15 | 6.0 | 11.0 | 0.00 | 0.00 | 0.00 | 82 | 1002.1 |
| 20260508164508 | 48 | 26 | 7.0 | 10.0 | 0.00 | 0.00 | 0.00 | 85 | 1002.0 |
| 20260508163007 | 48 | 47 | 6.0 | 13.0 | 0.00 | 0.00 | 0.00 | 85 | 1002.0 |
| 20260508161507 | 48 | 26 | 7.0 | 11.0 | 0.00 | 0.00 | 0.00 | 84 | 1001.8 |
| 20260508160006 | 49 | 39 | 6.0 | 11.0 | 0.00 | 0.00 | 0.00 | 83 | 1001.9 |
| 20260508154506 | 48 | 38 | 4.0 | 12.0 | 0.00 | 0.00 | 0.00 | 85 | 1001.9 |
| 20260508153004 | 48 | 50 | 7.0 | 11.0 | 0.00 | 0.00 | 0.00 | 86 | 1002.0 |
| 20260508151504 | 48 | 45 | 6.0 | 12.0 | 0.00 | 0.00 | 0.00 | 86 | 1002.0 |
| 20260508150005 | 48 | 42 | 8.0 | 14.0 | 0.00 | 0.00 | 0.00 | 87 | 1002.0 |
| 20260508144503 | 48 | 37 | 7.0 | 13.0 | 0.00 | 0.00 | 0.00 | 88 | 1002.3 |
| 20260508143002 | 47 | 40 | 9.0 | 17.0 | 0.00 | 0.00 | 0.00 | 88 | 1002.1 |
| 20260508141502 | 47 | 44 | 9.0 | 15.0 | 0.00 | 0.00 | 0.00 | 88 | 1002.4 |
| 20260508140003 | 48 | 10 | 9.0 | 15.0 | 0.00 | 0.00 | 0.00 | 89 | 1002.6 |
| 20260508134617 | 47 | 10 | 9.0 | 14.0 | 0.00 | 0.00 | 0.00 | 88 | 1002.7 |
| 20260508133100 | 48 | 36 | 5.0 | 14.0 | 0.00 | 0.00 | 0.00 | 84 | 1002.9 |
| 20260508131558 | 47 | 50 | 7.0 | 12.0 | 0.00 | 0.00 | 0.00 | 86 | 1002.7 |
| 20260508130057 | 46 | 49 | 7.0 | 12.0 | 0.00 | 0.00 | 0.00 | 87 | 1002.4 |
| 20260508124556 | 45 | 30 | 7.0 | 13.0 | 0.00 | 0.00 | 0.00 | 87 | 1002.4 |
| 20260508123107 | 45 | 31 | 6.0 | 11.0 | 0.00 | 0.00 | 0.00 | 87 | 1002.5 |
| 20260508121558 | 44 | 24 | 6.0 | 15.0 | 0.00 | 0.00 | 0.00 | 87 | 1002.5 |
| 20260508120054 | 43 | 357 | 6.0 | 10.0 | 0.00 | 0.00 | 0.00 | 87 | 1002.6 |
| 20260508114554 | 42 | 15 | 3.0 | 6.0 | 0.00 | 0.00 | 0.00 | 87 | 1002.8 |
| 20260508113102 | 42 | 21 | 3.0 | 6.0 | 0.00 | 0.00 | 0.00 | 87 | 1002.6 |
| 20260508111553 | 40 | 19 | 2.0 | 5.0 | 0.00 | 0.00 | 0.00 | 87 | 1002.6 |
| 20260508110051 | 40 | 5 | 2.0 | 5.0 | 0.00 | 0.00 | 0.00 | 87 | 1002.7 |
| 20260508104551 | 40 | 5 | 0.0 | 0.0 | 0.00 | 0.00 | 0.00 | 87 | 1002.9 |
| 20260508103051 | 39 | 5 | 1.0 | 4.0 | 0.00 | 0.00 | 0.00 | 87 | 1003.2 |
| 20260508101552 | 39 | 5 | 1.0 | 3.0 | 0.00 | 0.00 | 0.00 | 87 | 1002.9 |
| 20260508100046 | 39 | 36 | 0.0 | 0.0 | 0.00 | 0.00 | 0.00 | 87 | 1002.9 |
| 20260508094606 | 39 | 37 | 0.0 | 0.0 | 0.00 | 0.00 | 0.00 | 87 | 1002.4 |
| 20260508093045 | 39 | 37 | 0.0 | 0.0 | 0.00 | 0.00 | 0.00 | 87 | 1002.6 |
| 20260508091545 | 39 | 37 | 0.0 | 3.0 | 0.00 | 0.00 | 0.00 | 87 | 1002.5 |
| 20260508090048 | 40 | 38 | 0.0 | 1.0 | 0.00 | 0.00 | 0.00 | 87 | 1002.6 |
| 20260508084539 | 40 | 38 | 0.0 | 1.0 | 0.00 | 0.00 | 0.00 | 87 | 1002.6 |
| 20260508083036 | 40 | 39 | 0.0 | 4.0 | 0.00 | 0.00 | 0.00 | 87 | 1002.2 |
| 20260508081557 | 41 | 41 | 2.0 | 9.0 | 0.00 | 0.00 | 0.00 | 87 | 1002.0 |
| 20260508080033 | 41 | 50 | 3.0 | 10.0 | 0.00 | 0.00 | 0.00 | 87 | 1001.9 |
| 20260508074531 | 41 | 27 | 4.0 | 8.0 | 0.00 | 0.00 | 0.00 | 87 | 1002.0 |
| 20260508073030 | 42 | 36 | 6.0 | 10.0 | 0.00 | 0.00 | 0.00 | 87 | 1002.1 |
| 20260508071539 | 42 | 65 | 5.0 | 12.0 | 0.00 | 0.00 | 0.00 | 87 | 1002.2 |
| 20260508070026 | 42 | 61 | 5.0 | 10.0 | 0.00 | 0.00 | 0.00 | 87 | 1001.9 |
| 20260508064523 | 43 | 56 | 5.0 | 12.0 | 0.00 | 0.00 | 0.00 | 87 | 1002.0 |
| 20260508063031 | 44 | 59 | 4.0 | 13.0 | 0.00 | 0.00 | 0.00 | 87 | 1002.1 |
| 20260508061517 | 46 | 57 | 2.0 | 11.0 | 0.00 | 0.00 | 0.00 | 87 | 1002.0 |
| 20260508060015 | 47 | 51 | 4.0 | 10.0 | 0.00 | 0.00 | 0.00 | 87 | 1001.7 |
| 20260508054512 | 47 | 44 | 4.0 | 10.0 | 0.00 | 0.00 | 0.00 | 87 | 1001.9 |
| 20260508053008 | 48 | 60 | 0.0 | 7.0 | 0.00 | 0.00 | 0.00 | 87 | 1002.0 |
| 20260508051507 | 48 | 40 | 1.0 | 6.0 | 0.00 | 0.00 | 0.00 | 87 | 1001.5 |
| 20260508050004 | 48 | 70 | 1.0 | 5.0 | 0.00 | 0.00 | 0.00 | 87 | 1001.5 |
| 20260508044501 | 49 | 10 | 2.0 | 4.0 | 0.00 | 0.00 | 0.00 | 87 | 1001.7 |
| 20260508043103 | 49 | 310 | 0.0 | 2.0 | 0.00 | 0.00 | 0.00 | 87 | 1001.9 |
| 20260508041555 | 49 | 223 | 0.0 | 0.0 | 0.00 | 0.00 | 0.00 | 87 | 1001.9 |
| 20260508040055 | 49 | 223 | 0.0 | 0.0 | 0.00 | 0.00 | 0.00 | 87 | 1001.9 |
| 20260508034546 | 49 | 223 | 0.0 | 0.0 | 0.00 | 0.00 | 0.00 | 87 | 1002.2 |
| 20260508033042 | 49 | 223 | 0.0 | 0.0 | 0.00 | 0.00 | 0.00 | 87 | 1002.3 |
| 20260508031538 | 49 | 223 | 0.0 | 0.0 | 0.00 | 0.00 | 0.00 | 87 | 1002.3 |
| 20260508030035 | 49 | 223 | 0.0 | 0.0 | 0.00 | 0.00 | 0.00 | 87 | 1002.4 |
| 20260508024545 | 49 | 223 | 2.0 | 3.0 | 0.00 | 0.00 | 0.00 | 87 | 1002.3 |
| 20260508023035 | 49 | 223 | 0.0 | 2.0 | 0.00 | 0.00 | 0.00 | 87 | 1002.0 |
| 20260508021535 | 49 | 223 | 0.0 | 0.0 | 0.00 | 0.00 | 0.00 | 87 | 1002.1 |
| 20260508020033 | 49 | 223 | 0.0 | 1.0 | 0.00 | 0.00 | 0.00 | 87 | 1002.1 |
| 20260508014540 | 48 | 193 | 1.0 | 3.0 | 0.00 | 0.00 | 0.00 | 87 | 1002.3 |
| 20260508013032 | 48 | 191 | 1.0 | 4.0 | 0.00 | 0.00 | 0.00 | 87 | 1002.0 |
| 20260508011535 | 48 | 215 | 1.0 | 4.0 | 0.00 | 0.00 | 0.00 | 87 | 1002.2 |
| 20260508010035 | 48 | 210 | 2.0 | 7.0 | 0.00 | 0.00 | 0.00 | 87 | 1002.4 |
| 20260508004534 | 48 | 222 | 2.0 | 6.0 | 0.00 | 0.00 | 0.00 | 87 | 1002.4 |
| 20260508003030 | 48 | 230 | 0.0 | 3.0 | 0.00 | 0.00 | 0.00 | 87 | 1002.3 |
| 20260508001631 | 49 | 249 | 1.0 | 5.0 | 0.00 | 0.00 | 0.00 | 87 | 1002.6 |
| 20260508000028 | 49 | 202 | 2.0 | 8.0 | 0.00 | 0.00 | 0.00 | 87 | 1002.9 |
| 20260507234527 | 49 | 188 | 1.0 | 6.0 | 0.00 | 0.00 | 0.00 | 87 | 1002.5 |
| 20260507233038 | 49 | 200 | 1.0 | 6.0 | 0.00 | 0.00 | 0.00 | 87 | 1002.9 |
| 20260507231534 | 49 | 217 | 1.0 | 5.0 | 0.00 | 0.00 | 0.00 | 88 | 1003.2 |
| 20260507230025 | 49 | 173 | 2.0 | 5.0 | 0.00 | 0.00 | 0.00 | 88 | 1002.9 |
| 20260507224531 | 49 | 186 | 1.0 | 4.0 | 0.00 | 0.00 | 0.00 | 88 | 1003.2 |
| 20260507223026 | 49 | 252 | 2.0 | 5.0 | 0.00 | 0.00 | 0.00 | 88 | 1003.1 |
| 20260507221533 | 49 | 166 | 1.0 | 5.0 | 0.00 | 0.00 | 0.00 | 88 | 1003.3 |
| 20260507220022 | 49 | 210 | 1.0 | 5.0 | 0.00 | 0.00 | 0.00 | 88 | 1003.4 |
| 20260507214520 | 49 | 215 | 2.0 | 8.0 | 0.00 | 0.00 | 0.00 | 88 | 1002.9 |
| 20260507213019 | 49 | 254 | 4.0 | 8.0 | 0.00 | 0.00 | 0.00 | 89 | 1002.5 |
| 20260507211522 | 49 | 196 | 4.0 | 10.0 | 0.00 | 0.00 | 0.00 | 89 | 1002.6 |
| 20260507210012 | 50 | 183 | 4.0 | 10.0 | 0.00 | 0.00 | 0.00 | 89 | 1003.5 |
| 20260507204509 | 50 | 203 | 2.0 | 10.0 | 0.00 | 0.00 | 0.00 | 89 | 1004.1 |
| 20260507203007 | 50 | 199 | 4.0 | 20.0 | 0.00 | 0.00 | 0.00 | 90 | 1004.1 |
| 20260507201505 | 50 | 202 | 4.0 | 10.0 | 0.00 | 0.00 | 0.00 | 91 | 1004.8 |
| 20260507200002 | 50 | 233 | 4.0 | 9.0 | 0.00 | 0.00 | 0.00 | 92 | 1005.1 |
| 20260507194502 | 51 | 239 | 5.0 | 10.0 | 0.00 | 0.00 | 0.00 | 92 | 1004.9 |
| 20260507193003 | 52 | 207 | 2.0 | 11.0 | 0.00 | 0.00 | 0.00 | 93 | 1005.0 |